User: anonymous   Login
Location: Unspecified
(0.0000°N, 0.0000°E)
Time: 03:52:49
(UTC+00:00)
Language:

GEOEYE 1 - Orbit

View from above orbital plane
View from above orbital plane
View from above satellite
View from above satellite

Ground track
Ground track

The orbit data is extracted from the following two-line orbital elements,

1 33331U 08042A   18293.77895391  .00000152  00000-0  37837-4 0  9999
2 33331  98.1225   6.9106 0010123 156.2345 203.9321 14.64257988540897
Epoch (UTC): 20 October 2018 18:41:41
Eccentricity: 0.0010123
inclination: 98.1225°
perigee height: 672 km
apogee height: 686 km
right ascension of ascending node: 6.9106°
argument of perigee: 156.2345°
revolutions per day: 14.64257988
mean anomaly at epoch: 203.9321°
orbit number at epoch: 54089

The dashed part of the orbit path shows where the satellite is in the earth's shadow,  

DLR